TimeCST,TemperatureF,Dew PointF,Humidity,Sea Level PressureIn,VisibilityMPH,Wind Direction,Wind SpeedMPH,Gust SpeedMPH,PrecipitationIn,Events,Conditions,WindDirDegrees,DateUTC
1:22 AM,21.2,19.4,93,30.12,1.5,ENE,11.5,-,0.01,Snow,Light Snow,60,2013-03-05 07:22:00
1:38 AM,21.2,19.4,93,30.12,2.0,ENE,12.7,-,0.01,Snow,Light Snow,70,2013-03-05 07:38:00
1:53 AM,21.9,19.0,89,30.19,3.0,ENE,10.4,-,0.01,Snow,Light Snow,70,2013-03-05 07:53:00
2:26 AM,21.2,19.4,93,30.12,2.0,ENE,9.2,-,0.00,Snow,Light Snow,60,2013-03-05 08:26:00
2:34 AM,21.2,19.4,93,30.13,1.8,ENE,9.2,-,N/A,Snow,Light Snow,60,2013-03-05 08:34:00
2:53 AM,21.9,19.0,89,30.19,1.5,ENE,9.2,-,0.00,Snow,Light Snow,60,2013-03-05 08:53:00
3:20 AM,21.2,19.4,93,30.13,1.2,ENE,9.2,-,0.00,Snow,Light Snow,60,2013-03-05 09:20:00
3:42 AM,21.2,19.4,93,30.13,1.5,ENE,10.4,-,0.01,Snow,Light Snow,60,2013-03-05 09:42:00
3:53 AM,21.0,19.0,92,30.19,1.5,ENE,9.2,-,0.01,Snow,Light Snow,60,2013-03-05 09:53:00
4:03 AM,21.2,19.4,93,30.13,1.2,ENE,9.2,-,0.00,Snow,Light Snow,60,2013-03-05 10:03:00
4:14 AM,21.2,19.4,93,30.13,1.0,ENE,6.9,-,0.00,Snow,Light Snow,60,2013-03-05 10:14:00
4:34 AM,21.2,17.6,86,30.14,1.2,NE,8.1,-,N/A,Snow,Light Snow,50,2013-03-05 10:34:00
4:53 AM,19.9,18.0,92,30.21,1.2,NE,8.1,-,0.01,Snow,Light Snow,50,2013-03-05 10:53:00
5:53 AM,19.0,16.0,88,30.23,1.0,ENE,10.4,-,0.01,Snow,Light Snow,60,2013-03-05 11:53:00
6:46 AM,19.4,15.8,86,30.18,1.0,ENE,11.5,-,0.02,Snow,Light Snow,60,2013-03-05 12:46:00
6:53 AM,17.6,15.8,93,30.18,1.0,NE,10.4,-,N/A,Snow,Light Snow,50,2013-03-05 12:53:00
7:07 AM,17.6,15.8,93,30.19,1.0,ENE,11.5,-,0.01,Snow,Light Snow,60,2013-03-05 13:07:00
7:13 AM,17.6,15.8,93,30.19,0.8,ENE,10.4,-,0.01,Snow,Light Snow,60,2013-03-05 13:13:00
7:27 AM,17.6,15.8,93,30.20,0.5,ENE,8.1,-,0.01,Fog-Snow,Light Snow,70,2013-03-05 13:27:00
7:53 AM,18.0,15.1,88,30.27,0.8,NE,8.1,-,0.02,Snow,Light Snow,50,2013-03-05 13:53:00
8:53 AM,18.0,15.1,88,30.29,0.5,NE,9.2,-,0.02,Fog-Snow,Light Snow,50,2013-03-05 14:53:00
9:53 AM,18.0,15.1,88,30.30,0.8,ENE,9.2,-,0.02,Snow,Light Snow,60,2013-03-05 15:53:00
10:51 AM,19.4,15.8,86,30.25,0.5,NE,10.4,-,0.01,Fog-Snow,Snow,50,2013-03-05 16:51:00
10:53 AM,19.0,15.1,85,30.32,0.5,NE,10.4,-,0.01,Fog-Snow,Snow,50,2013-03-05 16:53:00
11:14 AM,19.4,15.8,86,30.26,1.0,NE,8.1,-,0.00,Snow,Light Snow,50,2013-03-05 17:14:00
11:32 AM,19.4,15.8,86,30.26,1.2,ENE,6.9,-,0.01,Snow,Light Snow,60,2013-03-05 17:32:00
11:53 AM,19.9,16.0,85,30.33,1.2,ENE,4.6,-,0.01,Snow,Light Snow,60,2013-03-05 17:53:00
12:09 PM,21.2,17.6,86,30.27,1.0,ENE,5.8,-,0.00,Snow,Light Snow,60,2013-03-05 18:09:00
12:24 PM,21.2,17.6,86,30.27,1.5,ENE,8.1,-,0.00,Snow,Light Snow,60,2013-03-05 18:24:00
12:46 PM,21.2,17.6,86,30.27,1.2,ENE,9.2,-,0.00,Snow,Light Snow,60,2013-03-05 18:46:00
12:53 PM,21.9,17.1,82,30.33,1.2,NE,8.1,-,0.00,Snow,Light Snow,40,2013-03-05 18:53:00
1:06 PM,21.2,17.6,86,30.27,1.5,NE,9.2,-,0.00,Snow,Light Snow,40,2013-03-05 19:06:00
1:28 PM,21.2,17.6,86,30.26,1.2,ENE,8.1,-,0.00,Snow,Light Snow,60,2013-03-05 19:28:00
1:38 PM,21.2,17.6,86,30.27,1.5,NE,10.4,-,0.00,Snow,Light Snow,50,2013-03-05 19:38:00
1:45 PM,21.2,17.6,86,30.27,1.8,ENE,6.9,-,0.00,Snow,Light Snow,60,2013-03-05 19:45:00
1:53 PM,21.9,16.0,78,30.34,2.0,NE,8.1,-,0.00,Snow,Light Snow,40,2013-03-05 19:53:00
2:14 PM,21.2,17.6,86,30.27,1.5,NE,9.2,-,0.00,Snow,Light Snow,50,2013-03-05 20:14:00
2:27 PM,21.2,17.6,86,30.27,1.2,ENE,8.1,-,0.00,Snow,Light Snow,60,2013-03-05 20:27:00
2:36 PM,21.2,17.6,86,30.27,1.0,NE,10.4,-,0.00,Snow,Light Snow,50,2013-03-05 20:36:00
2:50 PM,21.2,17.6,86,30.27,1.2,NE,9.2,-,0.00,Snow,Light Snow,40,2013-03-05 20:50:00
2:53 PM,21.9,16.0,78,30.34,1.2,NE,9.2,-,0.00,Snow,Light Snow,50,2013-03-05 20:53:00
3:05 PM,21.2,15.8,80,30.27,1.5,NE,9.2,-,0.01,Snow,Light Snow,40,2013-03-05 21:05:00
3:17 PM,21.2,15.8,80,30.27,2.0,NNE,6.9,-,0.01,Snow,Light Snow,30,2013-03-05 21:17:00
3:53 PM,21.9,17.1,82,30.35,3.0,North,8.1,-,0.01,Snow,Light Snow,10,2013-03-05 21:53:00
4:16 PM,21.2,17.6,86,30.29,1.8,North,6.9,-,0.00,Snow,Light Snow,10,2013-03-05 22:16:00
4:27 PM,21.2,17.6,86,30.29,1.8,North,8.1,-,0.00,Snow,Light Snow,360,2013-03-05 22:27:00
4:35 PM,21.2,17.6,86,30.29,2.5,North,8.1,-,0.00,Snow,Light Snow,10,2013-03-05 22:35:00
4:53 PM,21.9,17.1,82,30.36,2.0,NNE,9.2,-,0.00,Snow,Light Snow,30,2013-03-05 22:53:00
5:01 PM,21.2,17.6,86,30.29,1.5,NNE,5.8,-,0.00,Snow,Light Snow,30,2013-03-05 23:01:00
5:09 PM,21.2,17.6,86,30.29,1.2,NE,5.8,-,0.00,Snow,Light Snow,40,2013-03-05 23:09:00
5:22 PM,21.2,17.6,86,30.30,1.2,NNE,8.1,-,0.00,Snow,Light Snow,30,2013-03-05 23:22:00
5:32 PM,21.2,15.8,80,30.30,1.5,NNE,9.2,-,0.00,Snow,Light Snow,30,2013-03-05 23:32:00
5:39 PM,19.4,15.8,86,30.30,1.8,NE,6.9,-,0.00,Snow,Light Snow,40,2013-03-05 23:39:00
5:50 PM,19.4,17.6,93,30.30,2.0,NNE,5.8,-,0.00,Snow,Light Snow,30,2013-03-05 23:50:00
5:53 PM,19.9,17.1,89,30.38,2.5,NNE,6.9,-,0.00,Snow,Light Snow,30,2013-03-05 23:53:00
6:12 PM,19.4,15.8,86,30.32,3.0,NNE,3.5,-,0.00,Snow,Light Snow,30,2013-03-06 00:12:00
6:38 PM,19.4,15.8,86,30.32,5.0,NE,10.4,-,0.00,Snow,Light Snow,40,2013-03-06 00:38:00
6:45 PM,19.4,15.8,86,30.31,8.0,NE,9.2,-,0.00,,Overcast,50,2013-03-06 00:45:00
6:53 PM,19.0,15.1,85,30.38,7.0,NE,9.2,-,0.00,Snow,Light Snow,50,2013-03-06 00:53:00
7:07 PM,19.4,15.8,86,30.31,1.8,NNE,6.9,-,0.00,Snow,Light Snow,30,2013-03-06 01:07:00
7:23 PM,19.4,15.8,86,30.32,2.5,NE,4.6,-,0.00,Snow,Light Snow,40,2013-03-06 01:23:00
7:41 PM,19.4,15.8,86,30.32,1.5,NNE,3.5,-,0.00,Snow,Light Snow,30,2013-03-06 01:41:00
7:50 PM,19.4,15.8,86,30.32,3.0,NNE,4.6,-,0.00,Snow,Light Snow,30,2013-03-06 01:50:00
7:53 PM,19.0,16.0,88,30.39,4.0,NNE,4.6,-,0.00,Snow,Light Snow,30,2013-03-06 01:53:00
8:53 PM,18.0,15.1,88,30.41,7.0,North,3.5,-,0.00,,Overcast,350,2013-03-06 02:53:00
9:30 PM,17.6,15.8,93,30.32,1.8,North,5.8,-,0.00,Snow,Light Snow,10,2013-03-06 03:30:00
9:45 PM,15.8,12.2,86,30.33,3.0,North,4.6,-,0.00,Snow,Light Snow,360,2013-03-06 03:45:00
9:53 PM,16.0,14.0,92,30.41,4.0,North,4.6,-,0.00,Snow,Light Snow,350,2013-03-06 03:53:00
10:22 PM,14.0,12.2,93,30.34,9.0,NNW,4.6,-,0.00,,Scattered Clouds,340,2013-03-06 04:22:00
10:53 PM,12.0,10.0,92,30.42,10.0,North,4.6,-,0.00,,Clear,360,2013-03-06 04:53:00
11:53 PM,10.9,10.0,96,30.42,10.0,North,3.5,-,N/A,,Clear,360,2013-03-06 05:53:00